| time (UTC) | temp F | wind direction | speed MPH | gust MPH | rain 1hr in | rain 24hr in | rain mn in | humidity % | barometer mb |
| 20260510231840 | 65 | 257 | 6.0 | 13.0 | 0.00 | 0.00 | 0.00 | 79 | 1012.4 |
| 20260510231332 | 66 | 234 | 9.0 | 13.0 | 0.00 | 0.00 | 0.00 | 77 | 1012.4 |
| 20260510230824 | 65 | 239 | 7.0 | 14.0 | 0.00 | 0.00 | 0.00 | 79 | 1012.4 |
| 20260510230317 | 66 | 207 | 9.0 | 14.0 | 0.00 | 0.00 | 0.00 | 78 | 1012.4 |
| 20260510225809 | 66 | 267 | 6.0 | 13.0 | 0.00 | 0.00 | 0.00 | 78 | 1012.4 |
| 20260510225306 | 65 | 199 | 10.0 | 16.0 | 0.00 | 0.00 | 0.00 | 79 | 1012.4 |
| 20260510224754 | 66 | 226 | 6.0 | 16.0 | 0.00 | 0.00 | 0.00 | 77 | 1012.1 |
| 20260510224246 | 66 | 275 | 5.0 | 10.0 | 0.00 | 0.00 | 0.00 | 78 | 1012.1 |
| 20260510223739 | 66 | 254 | 6.0 | 11.0 | 0.00 | 0.00 | 0.00 | 77 | 1012.1 |
| 20260510222724 | 66 | 243 | 7.0 | 11.0 | 0.00 | 0.00 | 0.00 | 77 | 1012.4 |
| 20260510222215 | 66 | 218 | 7.0 | 13.0 | 0.00 | 0.00 | 0.00 | 77 | 1012.1 |
| 20260510221708 | 66 | 244 | 8.0 | 13.0 | 0.00 | 0.00 | 0.00 | 77 | 1012.4 |
| 20260510220653 | 67 | 215 | 6.0 | 11.0 | 0.00 | 0.00 | 0.00 | 76 | 1012.4 |
| 20260510220144 | 66 | 262 | 5.0 | 11.0 | 0.00 | 0.00 | 0.00 | 76 | 1012.4 |
| 20260510215637 | 66 | 248 | 7.0 | 14.0 | 0.00 | 0.00 | 0.00 | 77 | 1012.4 |
| 20260510215130 | 66 | 247 | 4.0 | 14.0 | 0.00 | 0.00 | 0.00 | 77 | 1012.4 |
| 20260510214622 | 66 | 252 | 6.0 | 14.0 | 0.00 | 0.00 | 0.00 | 77 | 1012.4 |
| 20260510214115 | 66 | 233 | 11.0 | 16.0 | 0.00 | 0.00 | 0.00 | 77 | 1012.4 |
| 20260510213606 | 67 | 224 | 12.0 | 16.0 | 0.00 | 0.00 | 0.00 | 75 | 1012.4 |
| 20260510213059 | 67 | 215 | 8.0 | 11.0 | 0.00 | 0.00 | 0.00 | 74 | 1012.4 |
| 20260510212551 | 66 | 224 | 6.0 | 14.0 | 0.00 | 0.00 | 0.00 | 76 | 1012.4 |
| 20260510212044 | 67 | 316 | 6.0 | 14.0 | 0.00 | 0.00 | 0.00 | 76 | 1012.4 |
| 20260510211029 | 67 | 207 | 4.0 | 11.0 | 0.00 | 0.00 | 0.00 | 75 | 1012.8 |
| 20260510210521 | 68 | 234 | 5.0 | 13.0 | 0.00 | 0.00 | 0.00 | 74 | 1012.4 |
| 20260510204958 | 67 | 275 | 5.0 | 13.0 | 0.00 | 0.00 | 0.00 | 75 | 1012.8 |
| 20260510204451 | 66 | 252 | 6.0 | 13.0 | 0.00 | 0.00 | 0.00 | 77 | 1012.8 |
| 20260510203943 | 67 | 204 | 11.0 | 13.0 | 0.00 | 0.00 | 0.00 | 76 | 1012.8 |
| 20260510203436 | 66 | 242 | 7.0 | 13.0 | 0.00 | 0.00 | 0.00 | 77 | 1012.8 |
| 20260510202928 | 66 | 216 | 7.0 | 13.0 | 0.00 | 0.00 | 0.00 | 77 | 1012.8 |
| 20260510202420 | 66 | 276 | 10.0 | 14.0 | 0.00 | 0.00 | 0.00 | 76 | 1012.8 |
| 20260510201913 | 67 | 238 | 9.0 | 14.0 | 0.00 | 0.00 | 0.00 | 76 | 1012.8 |
| 20260510200857 | 67 | 250 | 8.0 | 13.0 | 0.00 | 0.00 | 0.00 | 75 | 1012.8 |
| 20260510195842 | 67 | 227 | 9.0 | 11.0 | 0.00 | 0.00 | 0.00 | 75 | 1012.8 |
| 20260510195334 | 67 | 240 | 6.0 | 13.0 | 0.00 | 0.00 | 0.00 | 76 | 1012.8 |
| 20260510194827 | 67 | 237 | 7.0 | 13.0 | 0.00 | 0.00 | 0.00 | 75 | 1012.8 |
| 20260510194320 | 67 | 256 | 4.0 | 13.0 | 0.00 | 0.00 | 0.00 | 75 | 1012.8 |
| 20260510193304 | 67 | 225 | 9.0 | 13.0 | 0.00 | 0.00 | 0.00 | 74 | 1012.8 |
| 20260510192756 | 67 | 201 | 6.0 | 14.0 | 0.00 | 0.00 | 0.00 | 74 | 1012.8 |
| 20260510192250 | 67 | 233 | 6.0 | 14.0 | 0.00 | 0.00 | 0.00 | 74 | 1012.8 |
| 20260510191741 | 67 | 222 | 6.0 | 10.0 | 0.00 | 0.00 | 0.00 | 75 | 1012.8 |
| 20260510191234 | 69 | 180 | 7.0 | 10.0 | 0.00 | 0.00 | 0.00 | 71 | 1012.8 |
| 20260510190219 | 67 | 252 | 8.0 | 11.0 | 0.00 | 0.00 | 0.00 | 74 | 1012.8 |
| 20260510185711 | 67 | 254 | 6.0 | 11.0 | 0.00 | 0.00 | 0.00 | 74 | 1012.8 |
| 20260510185203 | 68 | 222 | 9.0 | 13.0 | 0.00 | 0.00 | 0.00 | 72 | 1012.8 |
| 20260510184655 | 67 | 260 | 5.0 | 13.0 | 0.00 | 0.00 | 0.00 | 73 | 1013.1 |
| 20260510184148 | 67 | 140 | 6.0 | 10.0 | 0.00 | 0.00 | 0.00 | 75 | 1013.1 |
| 20260510183640 | 68 | 230 | 8.0 | 11.0 | 0.00 | 0.00 | 0.00 | 73 | 1013.1 |
| 20260510182625 | 68 | 205 | 8.0 | 11.0 | 0.00 | 0.00 | 0.00 | 73 | 1012.8 |
| 20260510182118 | 68 | 198 | 3.0 | 10.0 | 0.00 | 0.00 | 0.00 | 73 | 1012.8 |
| 20260510181610 | 69 | 234 | 6.0 | 9.0 | 0.00 | 0.00 | 0.00 | 71 | 1012.4 |
| 20260510181103 | 69 | 310 | 2.0 | 8.0 | 0.00 | 0.00 | 0.00 | 71 | 1012.8 |
| 20260510180554 | 69 | 246 | 4.0 | 10.0 | 0.00 | 0.00 | 0.00 | 71 | 1012.8 |
| 20260510180047 | 69 | 199 | 4.0 | 10.0 | 0.00 | 0.00 | 0.00 | 72 | 1012.4 |
| 20260510175540 | 69 | 210 | 8.0 | 9.0 | 0.00 | 0.00 | 0.00 | 70 | 1012.4 |
| 20260510175032 | 69 | 283 | 4.0 | 7.0 | 0.00 | 0.00 | 0.00 | 72 | 1012.4 |
| 20260510174525 | 69 | 260 | 2.0 | 7.0 | 0.00 | 0.00 | 0.00 | 71 | 1012.4 |
| 20260510173510 | 69 | 204 | 2.0 | 4.0 | 0.00 | 0.00 | 0.00 | 72 | 1012.4 |
| 20260510173001 | 68 | 76 | 1.0 | 4.0 | 0.00 | 0.00 | 0.00 | 72 | 1012.8 |
| 20260510172454 | 67 | 133 | 2.0 | 6.0 | 0.00 | 0.00 | 0.00 | 74 | 1012.4 |
| 20260510171439 | 67 | 91 | 3.0 | 6.0 | 0.00 | 0.00 | 0.00 | 75 | 1012.4 |
| 20260510170931 | 67 | 203 | 1.0 | 7.0 | 0.00 | 0.00 | 0.00 | 75 | 1012.4 |
| 20260510170424 | 68 | 209 | 3.0 | 7.0 | 0.00 | 0.00 | 0.00 | 74 | 1012.4 |
| 20260510165916 | 66 | 328 | 1.0 | 3.0 | 0.00 | 0.00 | 0.00 | 76 | 1012.4 |
| 20260510165409 | 65 | 225 | 2.0 | 4.0 | 0.00 | 0.00 | 0.00 | 78 | 1012.8 |
| 20260510164354 | 64 | 232 | 2.0 | 7.0 | 0.00 | 0.00 | 0.00 | 80 | 1012.4 |
| 20260510162831 | 65 | 237 | 4.0 | 4.0 | 0.00 | 0.00 | 0.00 | 77 | 1012.8 |
| 20260510162323 | 65 | 311 | 0.0 | 2.0 | 0.00 | 0.00 | 0.00 | 79 | 1012.4 |
| 20260510161815 | 65 | 264 | 2.0 | 4.0 | 0.00 | 0.00 | 0.00 | 79 | 1012.4 |
| 20260510161307 | 65 | 199 | 2.0 | 4.0 | 0.00 | 0.00 | 0.00 | 78 | 1012.4 |
| 20260510160800 | 64 | 300 | 0.0 | 3.0 | 0.00 | 0.00 | 0.00 | 82 | 1012.4 |
| 20260510160252 | 63 | 115 | 2.0 | 4.0 | 0.00 | 0.00 | 0.00 | 82 | 1012.4 |
| 20260510155745 | 63 | 176 | 2.0 | 4.0 | 0.00 | 0.00 | 0.00 | 83 | 1012.4 |
| 20260510155237 | 63 | 119 | 2.0 | 3.0 | 0.00 | 0.00 | 0.00 | 82 | 1012.4 |
| 20260510154730 | 63 | 102 | 2.0 | 4.0 | 0.00 | 0.00 | 0.00 | 83 | 1012.4 |
| 20260510152700 | 62 | 266 | 1.0 | 3.0 | 0.00 | 0.00 | 0.00 | 85 | 1012.4 |
| 20260510151644 | 62 | 261 | 0.0 | 2.0 | 0.00 | 0.00 | 0.00 | 85 | 1012.4 |
| 20260510151136 | 62 | 212 | 1.0 | 2.0 | 0.00 | 0.00 | 0.00 | 86 | 1012.4 |
| 20260510150629 | 62 | 252 | 0.0 | 2.0 | 0.00 | 0.00 | 0.00 | 86 | 1012.4 |
| 20260510150121 | 61 | 312 | 0.0 | 2.0 | 0.00 | 0.00 | 0.00 | 87 | 1012.4 |
| 20260510145614 | 61 | 325 | 1.0 | 2.0 | 0.00 | 0.00 | 0.00 | 88 | 1012.4 |
| 20260510145106 | 61 | 298 | 0.0 | 2.0 | 0.00 | 0.00 | 0.00 | 88 | 1012.1 |
| 20260510144559 | 61 | 274 | 0.0 | 2.0 | 0.00 | 0.00 | 0.00 | 88 | 1012.4 |
| 20260510144052 | 61 | 235 | 1.0 | 3.0 | 0.00 | 0.00 | 0.00 | 89 | 1012.4 |
| 20260510143543 | 61 | 242 | 2.0 | 3.0 | 0.00 | 0.00 | 0.00 | 89 | 1012.4 |
| 20260510143037 | 61 | 139 | 3.0 | 3.0 | 0.00 | 0.00 | 0.00 | 89 | 1012.4 |
| 20260510142528 | 60 | 189 | 1.0 | 3.0 | 0.00 | 0.00 | 0.00 | 89 | 1012.1 |
| 20260510141513 | 60 | 48 | 1.0 | 3.0 | 0.00 | 0.00 | 0.00 | 90 | 1012.1 |
| 20260510140458 | 60 | 2 | 1.0 | 4.0 | 0.00 | 0.00 | 0.00 | 90 | 1012.1 |
| 20260510135952 | 60 | 29 | 2.0 | 4.0 | 0.00 | 0.00 | 0.00 | 90 | 1011.8 |
| 20260510135443 | 60 | 5 | 2.0 | 6.0 | 0.00 | 0.00 | 0.00 | 90 | 1011.8 |
| 20260510134935 | 60 | 347 | 1.0 | 6.0 | 0.00 | 0.00 | 0.00 | 90 | 1011.8 |
| 20260510133920 | 60 | 327 | 2.0 | 6.0 | 0.00 | 0.00 | 0.00 | 91 | 1011.8 |
| 20260510133412 | 60 | 318 | 2.0 | 3.0 | 0.00 | 0.00 | 0.00 | 91 | 1011.8 |
| 20260510132904 | 60 | 6 | 2.0 | 3.0 | 0.00 | 0.00 | 0.00 | 91 | 1011.8 |
| 20260510132357 | 60 | 13 | 2.0 | 3.0 | 0.00 | 0.00 | 0.00 | 91 | 1011.8 |
| 20260510131851 | 60 | 10 | 1.0 | 2.0 | 0.00 | 0.00 | 0.00 | 91 | 1011.8 |
| 20260510131341 | 60 | 334 | 1.0 | 1.0 | 0.00 | 0.00 | 0.00 | 91 | 1011.8 |
| 20260510130327 | 60 | 296 | 0.0 | 2.0 | 0.00 | 0.00 | 0.00 | 92 | 1011.8 |
| 20260510125819 | 60 | 334 | 0.0 | 2.0 | 0.00 | 0.00 | 0.00 | 92 | 1011.8 |
| 20260510125312 | 59 | 26 | 1.0 | 3.0 | 0.00 | 0.00 | 0.00 | 92 | 1011.4 |
| 20260510124804 | 59 | 359 | 1.0 | 3.0 | 0.00 | 0.00 | 0.00 | 92 | 1011.8 |
| 20260510124257 | 59 | 343 | 0.0 | 4.0 | 0.00 | 0.00 | 0.00 | 93 | 1011.8 |
| 20260510123749 | 59 | 344 | 1.0 | 4.0 | 0.00 | 0.00 | 0.00 | 93 | 1011.8 |
| 20260510123242 | 59 | 351 | 1.0 | 2.0 | 0.00 | 0.00 | 0.00 | 93 | 1011.8 |
| 20260510122226 | 59 | 323 | 0.0 | 1.0 | 0.00 | 0.00 | 0.00 | 93 | 1011.8 |
| 20260510121718 | 59 | 327 | 1.0 | 1.0 | 0.00 | 0.00 | 0.00 | 94 | 1011.8 |
| 20260510121210 | 59 | 326 | 0.0 | 1.0 | 0.00 | 0.00 | 0.00 | 94 | 1011.8 |
| 20260510120703 | 59 | 326 | 0.0 | 2.0 | 0.00 | 0.00 | 0.00 | 94 | 1011.8 |
| 20260510120155 | 59 | 310 | 0.0 | 2.0 | 0.00 | 0.00 | 0.00 | 94 | 1011.8 |
| 20260510115140 | 59 | 331 | 0.0 | 2.0 | 0.00 | 0.00 | 0.00 | 94 | 1011.8 |
| 20260510114632 | 59 | 2 | 1.0 | 2.0 | 0.00 | 0.00 | 0.00 | 94 | 1011.8 |
| 20260510114125 | 59 | 264 | 0.0 | 2.0 | 0.00 | 0.00 | 0.00 | 94 | 1011.8 |
| 20260510113617 | 59 | 287 | 0.0 | 2.0 | 0.00 | 0.00 | 0.00 | 94 | 1011.8 |
| 20260510113110 | 58 | 345 | 0.0 | 3.0 | 0.00 | 0.00 | 0.00 | 94 | 1011.8 |
| 20260510112601 | 58 | 0 | 0.0 | 6.0 | 0.00 | 0.00 | 0.00 | 95 | 1011.8 |
| 20260510112054 | 58 | 16 | 0.0 | 6.0 | 0.00 | 0.00 | 0.00 | 95 | 1011.8 |
| 20260510111547 | 58 | 345 | 0.0 | 3.0 | 0.00 | 0.00 | 0.00 | 95 | 1011.8 |
| 20260510111039 | 58 | 358 | 0.0 | 3.0 | 0.00 | 0.00 | 0.00 | 95 | 1011.4 |
| 20260510110532 | 58 | 20 | 1.0 | 3.0 | 0.00 | 0.00 | 0.00 | 95 | 1011.8 |
| 20260510110024 | 58 | 9 | 1.0 | 2.0 | 0.00 | 0.00 | 0.00 | 95 | 1011.4 |
| 20260510105516 | 58 | 290 | 0.0 | 2.0 | 0.00 | 0.00 | 0.00 | 95 | 1011.8 |
| 20260510105008 | 58 | 9 | 0.0 | 2.0 | 0.00 | 0.00 | 0.00 | 95 | 1011.8 |
| 20260510103953 | 58 | 56 | 4.0 | 4.0 | 0.00 | 0.00 | 0.00 | 95 | 1011.8 |
| 20260510102938 | 58 | 117 | 3.0 | 6.0 | 0.00 | 0.00 | 0.00 | 95 | 1011.8 |
| 20260510102431 | 58 | 20 | 1.0 | 4.0 | 0.00 | 0.00 | 0.00 | 95 | 1011.8 |
| 20260510101923 | 58 | 4 | 2.0 | 3.0 | 0.00 | 0.00 | 0.00 | 95 | 1011.8 |
| 20260510101416 | 58 | 152 | 1.0 | 3.0 | 0.00 | 0.00 | 0.00 | 95 | 1011.8 |
| 20260510100401 | 58 | 118 | 2.0 | 3.0 | 0.00 | 0.00 | 0.00 | 95 | 1011.8 |
| 20260510095853 | 58 | 1 | 1.0 | 3.0 | 0.00 | 0.00 | 0.00 | 94 | 1011.8 |
| 20260510094837 | 58 | 307 | 0.0 | 2.0 | 0.00 | 0.00 | 0.00 | 94 | 1011.8 |
| 20260510094330 | 58 | 318 | 0.0 | 2.0 | 0.00 | 0.00 | 0.00 | 94 | 1012.1 |
| 20260510093822 | 58 | 299 | 0.0 | 2.0 | 0.00 | 0.00 | 0.00 | 94 | 1011.8 |
| 20260510093314 | 58 | 72 | 1.0 | 2.0 | 0.00 | 0.00 | 0.00 | 94 | 1011.8 |
| 20260510092807 | 58 | 343 | 0.0 | 3.0 | 0.00 | 0.00 | 0.00 | 94 | 1011.8 |
| 20260510092300 | 58 | 11 | 1.0 | 3.0 | 0.00 | 0.00 | 0.00 | 94 | 1011.8 |
| 20260510091752 | 58 | 49 | 2.0 | 3.0 | 0.00 | 0.00 | 0.00 | 94 | 1011.8 |
| 20260510091244 | 58 | 254 | 0.0 | 4.0 | 0.00 | 0.00 | 0.00 | 94 | 1011.8 |
| 20260510090737 | 58 | 173 | 1.0 | 4.0 | 0.00 | 0.00 | 0.00 | 94 | 1011.8 |
| 20260510090229 | 58 | 158 | 3.0 | 4.0 | 0.00 | 0.00 | 0.00 | 94 | 1011.8 |
| 20260510085722 | 58 | 194 | 3.0 | 4.0 | 0.00 | 0.00 | 0.00 | 94 | 1011.8 |
| 20260510085214 | 58 | 209 | 1.0 | 4.0 | 0.00 | 0.00 | 0.00 | 94 | 1011.8 |
| 20260510084159 | 58 | 223 | 1.0 | 4.0 | 0.00 | 0.00 | 0.00 | 94 | 1011.8 |
| 20260510083651 | 58 | 207 | 0.0 | 3.0 | 0.00 | 0.00 | 0.00 | 94 | 1011.8 |
| 20260510083143 | 58 | 258 | 1.0 | 4.0 | 0.00 | 0.00 | 0.00 | 94 | 1011.8 |
| 20260510082636 | 58 | 196 | 3.0 | 4.0 | 0.00 | 0.00 | 0.00 | 94 | 1011.8 |
| 20260510082128 | 58 | 257 | 1.0 | 2.0 | 0.00 | 0.00 | 0.00 | 94 | 1011.8 |
| 20260510081621 | 58 | 196 | 2.0 | 2.0 | 0.00 | 0.00 | 0.00 | 94 | 1012.1 |
| 20260510081113 | 58 | 191 | 2.0 | 3.0 | 0.00 | 0.00 | 0.00 | 94 | 1011.8 |
| 20260510080606 | 58 | 212 | 1.0 | 3.0 | 0.00 | 0.00 | 0.00 | 94 | 1012.1 |
| 20260510080058 | 58 | 222 | 2.0 | 3.0 | 0.00 | 0.00 | 0.00 | 94 | 1012.1 |
| 20260510075043 | 58 | 241 | 1.0 | 3.0 | 0.00 | 0.00 | 0.00 | 94 | 1012.1 |
| 20260510074536 | 58 | 233 | 2.0 | 3.0 | 0.00 | 0.00 | 0.00 | 94 | 1012.4 |
| 20260510074027 | 58 | 265 | 2.0 | 3.0 | 0.00 | 0.00 | 0.00 | 93 | 1012.4 |
| 20260510072505 | 58 | 262 | 0.0 | 3.0 | 0.00 | 0.00 | 0.00 | 94 | 1012.4 |
| 20260510071450 | 58 | 246 | 1.0 | 4.0 | 0.00 | 0.00 | 0.00 | 94 | 1012.1 |
| 20260510070434 | 58 | 199 | 2.0 | 4.0 | 0.00 | 0.00 | 0.00 | 94 | 1012.1 |
| 20260510065927 | 58 | 252 | 1.0 | 4.0 | 0.00 | 0.00 | 0.00 | 94 | 1012.4 |
| 20260510065419 | 58 | 90 | 1.0 | 4.0 | 0.00 | 0.00 | 0.00 | 94 | 1012.4 |
| 20260510064911 | 58 | 114 | 4.0 | 4.0 | 0.00 | 0.00 | 0.00 | 94 | 1012.1 |
| 20260510064403 | 58 | 333 | 0.0 | 2.0 | 0.00 | 0.00 | 0.00 | 94 | 1012.4 |
| 20260510063856 | 58 | 91 | 1.0 | 2.0 | 0.00 | 0.00 | 0.00 | 94 | 1012.1 |
| 20260510063348 | 58 | 235 | 1.0 | 2.0 | 0.00 | 0.00 | 0.00 | 94 | 1012.1 |
| 20260510062841 | 58 | 265 | 1.0 | 2.0 | 0.00 | 0.00 | 0.00 | 94 | 1012.1 |
| 20260510062333 | 58 | 260 | 1.0 | 3.0 | 0.00 | 0.00 | 0.00 | 94 | 1012.1 |
| 20260510061826 | 58 | 283 | 0.0 | 3.0 | 0.00 | 0.00 | 0.00 | 95 | 1012.1 |
| 20260510060811 | 58 | 246 | 0.0 | 2.0 | 0.00 | 0.00 | 0.00 | 95 | 1012.1 |
| 20260510060303 | 58 | 248 | 1.0 | 2.0 | 0.00 | 0.00 | 0.00 | 95 | 1012.1 |
| 20260510055755 | 58 | 208 | 1.0 | 2.0 | 0.00 | 0.00 | 0.00 | 95 | 1012.1 |
| 20260510055248 | 58 | 201 | 2.0 | 2.0 | 0.00 | 0.00 | 0.00 | 95 | 1012.4 |
| 20260510054740 | 58 | 238 | 1.0 | 2.0 | 0.00 | 0.00 | 0.00 | 95 | 1012.4 |
| 20260510054233 | 58 | 272 | 1.0 | 2.0 | 0.00 | 0.00 | 0.00 | 95 | 1012.4 |
| 20260510053726 | 58 | 247 | 0.0 | 1.0 | 0.00 | 0.00 | 0.00 | 95 | 1012.4 |
| 20260510052202 | 58 | 264 | 0.0 | 1.0 | 0.00 | 0.00 | 0.00 | 95 | 1012.4 |
| 20260510051655 | 58 | 281 | 0.0 | 1.0 | 0.00 | 0.00 | 0.00 | 95 | 1012.4 |
| 20260510051147 | 58 | 324 | 0.0 | 2.0 | 0.00 | 0.00 | 0.00 | 95 | 1012.4 |
| 20260510050639 | 58 | 262 | 0.0 | 3.0 | 0.00 | 0.00 | 0.00 | 95 | 1012.4 |
| 20260510045624 | 58 | 199 | 2.0 | 3.0 | 0.00 | 0.00 | 0.00 | 95 | 1012.4 |
| 20260510045117 | 58 | 227 | 1.0 | 3.0 | 0.00 | 0.00 | 0.00 | 94 | 1012.4 |
| 20260510044101 | 58 | 219 | 2.0 | 3.0 | 0.00 | 0.00 | 0.00 | 95 | 1012.1 |
| 20260510043553 | 58 | 225 | 1.0 | 3.0 | 0.00 | 0.00 | 0.00 | 95 | 1012.1 |
| 20260510043046 | 58 | 262 | 1.0 | 3.0 | 0.00 | 0.00 | 0.00 | 94 | 1012.1 |
| 20260510042031 | 58 | 352 | 0.0 | 4.0 | 0.00 | 0.00 | 0.00 | 94 | 1012.1 |
| 20260510041524 | 57 | 267 | 0.0 | 4.0 | 0.00 | 0.00 | 0.00 | 94 | 1012.1 |
| 20260510035452 | 58 | 214 | 2.0 | 4.0 | 0.00 | 0.00 | 0.00 | 94 | 1012.1 |
| 20260510034946 | 58 | 201 | 2.0 | 6.0 | 0.00 | 0.00 | 0.00 | 94 | 1011.8 |
| 20260510034438 | 58 | 232 | 3.0 | 6.0 | 0.00 | 0.00 | 0.00 | 94 | 1011.8 |
| 20260510033930 | 58 | 231 | 3.0 | 6.0 | 0.00 | 0.00 | 0.00 | 94 | 1011.8 |
| 20260510033422 | 58 | 221 | 4.0 | 6.0 | 0.00 | 0.00 | 0.00 | 93 | 1011.8 |
| 20260510032915 | 58 | 278 | 3.0 | 4.0 | 0.00 | 0.00 | 0.00 | 94 | 1011.8 |
| 20260510032408 | 58 | 246 | 0.0 | 4.0 | 0.00 | 0.00 | 0.00 | 93 | 1011.8 |
| 20260510031353 | 58 | 254 | 1.0 | 7.0 | 0.00 | 0.00 | 0.00 | 93 | 1011.4 |
| 20260510030845 | 58 | 230 | 5.0 | 7.0 | 0.00 | 0.00 | 0.00 | 93 | 1011.4 |
| 20260510030337 | 58 | 258 | 3.0 | 6.0 | 0.00 | 0.00 | 0.00 | 93 | 1011.4 |
| 20260510025829 | 58 | 238 | 4.0 | 6.0 | 0.00 | 0.00 | 0.00 | 93 | 1011.4 |
| 20260510025322 | 59 | 285 | 4.0 | 4.0 | 0.00 | 0.00 | 0.00 | 93 | 1011.1 |
| 20260510024814 | 58 | 273 | 0.0 | 6.0 | 0.00 | 0.00 | 0.00 | 93 | 1011.1 |
| 20260510024307 | 58 | 279 | 2.0 | 7.0 | 0.00 | 0.00 | 0.00 | 93 | 1011.1 |
| 20260510023800 | 58 | 244 | 4.0 | 8.0 | 0.00 | 0.00 | 0.00 | 92 | 1011.1 |
| 20260510023251 | 59 | 229 | 4.0 | 8.0 | 0.00 | 0.00 | 0.00 | 92 | 1011.1 |
| 20260510022744 | 59 | 267 | 3.0 | 7.0 | 0.00 | 0.00 | 0.00 | 92 | 1011.1 |
| 20260510022236 | 59 | 237 | 3.0 | 7.0 | 0.00 | 0.00 | 0.00 | 92 | 1011.1 |
| 20260510021729 | 59 | 258 | 4.0 | 7.0 | 0.00 | 0.00 | 0.00 | 92 | 1011.1 |
| 20260510021221 | 59 | 236 | 6.0 | 9.0 | 0.00 | 0.00 | 0.00 | 92 | 1011.1 |
| 20260510020713 | 59 | 232 | 4.0 | 9.0 | 0.00 | 0.00 | 0.00 | 91 | 1010.7 |
| 20260510020206 | 59 | 232 | 3.0 | 8.0 | 0.00 | 0.00 | 0.00 | 91 | 1010.7 |
| 20260510015658 | 59 | 262 | 4.0 | 8.0 | 0.00 | 0.00 | 0.00 | 91 | 1010.7 |
| 20260510015151 | 59 | 205 | 7.0 | 10.0 | 0.00 | 0.00 | 0.00 | 91 | 1010.7 |
| 20260510014135 | 59 | 230 | 6.0 | 10.0 | 0.00 | 0.00 | 0.00 | 91 | 1010.7 |
| 20260510013628 | 60 | 247 | 8.0 | 10.0 | 0.00 | 0.00 | 0.00 | 90 | 1010.7 |
| 20260510013120 | 60 | 294 | 4.0 | 9.0 | 0.00 | 0.00 | 0.00 | 90 | 1010.7 |
| 20260510012613 | 60 | 216 | 4.0 | 9.0 | 0.00 | 0.00 | 0.00 | 89 | 1010.7 |
| 20260510012105 | 60 | 272 | 4.0 | 9.0 | 0.00 | 0.00 | 0.00 | 89 | 1010.7 |
| 20260510011558 | 60 | 278 | 6.0 | 10.0 | 0.00 | 0.00 | 0.00 | 89 | 1010.7 |
| 20260510011050 | 60 | 259 | 6.0 | 10.0 | 0.00 | 0.00 | 0.00 | 89 | 1010.7 |
| 20260510010542 | 60 | 247 | 7.0 | 10.0 | 0.00 | 0.00 | 0.00 | 89 | 1010.7 |
| 20260510010035 | 60 | 218 | 8.0 | 10.0 | 0.00 | 0.00 | 0.00 | 88 | 1010.7 |
| 20260510005527 | 61 | 245 | 6.0 | 9.0 | 0.00 | 0.00 | 0.00 | 88 | 1010.7 |
| 20260510005019 | 61 | 258 | 4.0 | 10.0 | 0.00 | 0.00 | 0.00 | 89 | 1010.7 |
| 20260510004512 | 61 | 239 | 4.0 | 14.0 | 0.00 | 0.00 | 0.00 | 88 | 1010.7 |
| 20260510004004 | 61 | 222 | 4.0 | 14.0 | 0.00 | 0.00 | 0.00 | 88 | 1010.7 |
| 20260510003458 | 61 | 256 | 9.0 | 13.0 | 0.00 | 0.00 | 0.00 | 86 | 1010.7 |
| 20260510002950 | 61 | 195 | 8.0 | 14.0 | 0.00 | 0.00 | 0.00 | 87 | 1010.7 |
| 20260510002441 | 62 | 238 | 10.0 | 14.0 | 0.00 | 0.00 | 0.00 | 86 | 1010.7 |
| 20260510001934 | 62 | 240 | 10.0 | 11.0 | 0.00 | 0.00 | 0.00 | 85 | 1010.7 |
| 20260510001426 | 62 | 222 | 3.0 | 11.0 | 0.00 | 0.00 | 0.00 | 86 | 1010.7 |
| 20260510000918 | 62 | 230 | 6.0 | 13.0 | 0.00 | 0.00 | 0.00 | 85 | 1010.7 |
| 20260510000411 | 62 | 221 | 7.0 | 13.0 | 0.00 | 0.00 | 0.00 | 86 | 1010.7 |
| 20260509235903 | 62 | 256 | 9.0 | 14.0 | 0.00 | 0.00 | 0.00 | 84 | 1010.7 |
| 20260509235356 | 63 | 192 | 8.0 | 14.0 | 0.00 | 0.00 | 0.00 | 83 | 1010.7 |
| 20260509234849 | 63 | 268 | 7.0 | 14.0 | 0.00 | 0.00 | 0.00 | 83 | 1010.7 |
| 20260509234340 | 64 | 250 | 7.0 | 14.0 | 0.00 | 0.00 | 0.00 | 82 | 1010.7 |
| 20260509232818 | 65 | 235 | 6.0 | 14.0 | 0.00 | 0.00 | 0.00 | 80 | 1010.7 |
| 20260509232310 | 64 | 216 | 5.0 | 14.0 | 0.00 | 0.00 | 0.00 | 80 | 1010.7 |